{"data":{"norad_id":58872,"epoch":"2026-09-20T08:06:27.748224Z","epoch_age_seconds":166496,"freshness":"FRESH","line1":"1 58872U 24019V   26263.33782116  .00001060  00000+0  48029-4 0  9999","line2":"2 58872  43.0007 229.4505 0001109 274.1700  85.9024 15.27576696148831","mean_motion":15.27576696,"eccentricity":0.0001109,"inclination_deg":43.0007,"raan_deg":229.4505,"arg_perigee_deg":274.17,"mean_anomaly_deg":85.9024,"bstar":4.8029e-5,"rev_number":14883,"period_min":94.266952603472,"perigee_km":482.29808278687,"apogee_km":483.81989605732,"semimajor_km":6861.1959894221,"source":"CELESTRAK","updated_at":"2026-09-21T09:00:33.990816Z"}}